Погода в Жайреме

Казахстан     48°19′59″N   70°09′39″E
темп.,
°C
ветер,
м/с
пор.,
м/с
влажн.,
%
обл.,
%
осадки,
мм/ч
давл.,
гПа
погр.,
м
18 января, пн
пн1800:00−8ю337696 0.0 102021
03:00−8ю2277100 0.0 101921
06:00−9ююв347563 0.0 101826
09:00−10ю337323 0.0 101821
12:00−7вюв127561 0.0 101921
15:00−4вюв2379100 0.0 101745
18:00−6в2375100 0.0 101721
21:00−6в2273100 0.0 101721
19 января, вт
вт1900:00−8в2371100 0.0 101821
03:00−9вюв2373100 0.0 101721
06:00−10всв2271100 0.0 101721
09:00−10в347298 0.0 101724
12:00−8в237896 0.0 101836
15:00−6в338197 0.0 101663
18:00−8юв338396 0.0 101621
21:00−7юв3385100 0.0 101626
20 января, ср
ср2000:00−6ююв3487100 0.0 101660
03:00−5ю469098 0.0 1016131
06:00−5ю5109399 0.0 1016242
09:000юз61199100 1.6 1016410
12:00+1юз81299100 1.6 1017514
15:000зюз81194100 0.0 1020676
18:00−2юз4995100 0.1 1021401
21:00−2зюз4895100 0.0 1023416
21 января, чт
чт2100:00−5зюз2297100 0.1 102327
03:00−5зсз1197100 0.6 102221
06:00−7ссв1296100 0.9 102121
09:00−6с3496100 0.6 1019102
12:00−6с4596100 2.9 1018156
15:00−7с6894100 1.4 1016231
18:00−9ссв4793100 1.6 1016156
21:00−14ссв5108880 0.0 1018165
22 января, пт
пт2200:00−17с5108856 0.0 1020142
03:00−18ссв5790100 0.0 1021118
06:00−20ссв4793100 0.0 1022133
09:00−21ссв4593100 0.0 102582
12:00−19с2291100 0.0 102681
15:00−18зсз2389100 0.0 1026171
18:00−21зюз339396 0.0 102820
21:00−21юз589315 0.0 1030114